Showing default

KOREASAT 7, 42691

Orbit data source: Space-Track

KOREASAT 7, 42691 is a payload satellite owned by KT Sat (KR) in GEO that was launched on Thu, 04 May 2017 UTC via an ARIANE 5ECA launch vehicle from the French Guiana (FRGUI). Payloads include a variety of satellites, spacecraft, and rockets equipped with specific instruments for various scientific and technological missions. These include communications satellites like Starlink; space stations such as the ISS; scientific satellites like the Hubble; Earth observation satellites from companies like Planet Labs, Umbra, and HawkEye 360; GPS; miniature CubeSats for education and research; and military/defense satellites.

Not visible in the next 10 days
KOREASAT 7 details
Identifier
42691, 2017-023A
Orbit
GEO
Last TLE update11 hours ago
Origin
Flag of KRKT Sat (KR / SKOR)
ManufacturerThales Alenia
MissionOperational Commercial Communications
Bus & MotorSPACEBUS 4000B2, S400
Mass~3,500 kg wet, ~1,500 kg dry
Launch date (UTC)
2017-05-04 (8 years ago)
Launch vehicle
ARIANE 5ECA
Launch site
French Guiana (FRGUI)
Object type
Payload
Rocket body
Debris
Shape & HBRBox + 2 Pan, 30 m
Radar Cross Section21.380 m², Large (>1 m²)

Expand to show TLE details & history

TLE from 11 hours ago
0 KOREASAT 7
1 42691U 17023A   24361.05222005 -.00000334  00000-0  00000-0 0  9998
2 42691   0.0241  30.3555 0001271 235.0643 324.3075  1.00270136 27975
Epoch: 2024-12-26T01:15Z
Definitive object data (Epoch: 2024-12-26T01:15:11.812Z)
Latitude-0.02197°
Longitude115.87502°
Altitude35,782.181 km
Speed3.075 km/s
True Right ascension15h 18m 50s
True Declination0° 01' 19"
Sunlit
Object was in daylight at TLE epoch
Visualization TLE readout
Latitude0.01404°
Longitude-76.45447°
Altitude35,790.213 km
Speed3.074 km/s
Apparent Right ascension02h 13m 29s
Apparent Declination-5° 02' 49"
Sunlit
Object is in daylight
Visualization observer readout
Local Sidereal Time11:45:29
Azimuth306.463° NW
Elevation-41.806°
Doppler factor1
Orbital elements
Apogee altitude35,793.487 km
Perigee altitude35,782.768 km
Semi-major axis42,166.265 km
Eccentricity0.0001271
Inclination0.0241°
RAAN30.3555°
Arg. of periapsis235.0643°
True anomaly324.299°
Mean anomaly324.3075°
Eccentric anomaly324.30325°
Mean motion0.25067 °/min
BSTARUnknown
Orbital period1436.17 mins
Loading historical data...
42691 neighbors
Authenticating...
Loading maneuver chart data...
Loading historical data...
Loading historical data...
Loading historical data...
Loading historical data...
Loading historical data...
Loading historical data...
Loading historical data...
Other satellites on launch #23 in the year 2017 (2017-05-04 UTC)

KOREASAT 7 Visibility forecast

Observer location: undefined°, undefined

KOREASAT 7 is not visible in the next 10 days
Span
Click to sort rows by Start time (UTC) header in descending order
Start Az.
Max El. time (UTC)
Max El. Az.
Max El.
End time (UTC)
End Az.
|